Temperature
25 23 23 24 24 25 25 24 24 24 24 23 23 22 22 22 21 21 21 21 21 21 21 21 21 20 20 20 20 20 19 19 19 19 19 19 18 18 18 18 18 18 18 18
24 24 25 25 25 25 25 24 24 24 24 24 22 22 22 22 21 21 21 21 22 22 21 21 21 20 20 20 20 20 20 19 19 19 19 19 19 18 18 18 18 18 18 18
24 25 26 26 25 25 25 24 24 24 24 23 23 22 22 22 22 22 22 22 22 22 22 21 21 21 20 20 20 20 20 20 19 19 19 19 19 18 18 18 18 18 18 18
24 25 26 26 26 25 24 25 25 24 23 22 23 22 22 21 21 21 21 21 21 22 22 22 21 21 21 21 20 20 20 20 19 19 19 19 19 19 19 18 18 18 18 18
24 25 26 26 26 25 25 25 24 24 22 21 21 21 21 20 20 21 21 22 22 22 22 22 22 21 21 21 21 20 20 20 19 19 19 19 19 19 18 18 18 18 18 18
25 25 26 26 26 26 25 23 22 20 20 21 22 21 21 20 20 21 22 22 22 22 22 22 22 22 21 21 21 20 20 20 20 19 19 19 19 19 18 18 18 18 18 18
25 26 26 26 26 25 24 22 21 22 20 21 21 21 21 21 21 22 22 22 22 22 22 22 22 22 21 21 21 20 20 20 20 19 19 19 19 19 19 18 18 18 18 18
24 24 25 26 25 24 23 22 22 22 21 20 21 21 21 22 22 23 23 23 23 22 22 22 22 22 22 21 21 21 20 20 20 20 19 19 19 19 18 18 18 18 18 18
22 23 25 25 25 24 23 21 21 20 20 20 20 20 21 22 21 21 22 22 22 22 23 23 23 22 22 21 21 21 21 20 20 20 19 19 19 19 18 18 18 18 18 17
22 23 24 25 25 24 23 20 18 19 20 21 22 21 21 22 21 21 20 21 22 22 22 22 22 22 22 22 21 21 20 20 20 20 20 19 19 19 18 18 18 18 18 17
22 23 24 24 24 24 22 21 18 17 19 20 21 21 21 21 21 20 20 21 21 22 22 22 22 22 22 21 21 21 20 20 20 20 20 19 19 19 19 18 18 18 18 17
20 19 21 22 23 23 23 21 19 21 20 18 19 21 22 20 20 20 20 21 21 22 22 22 22 22 22 22 21 21 20 20 20 20 20 19 19 19 19 18 18 18 18 17
20 19 20 22 22 23 22 21 19 18 17 17 19 21 21 20 20 20 20 21 21 21 21 21 21 22 22 21 21 21 20 20 20 19 19 19 19 19 18 18 18 18 18 17
19 18 20 21 21 21 22 21 20 19 18 18 19 21 21 20 19 19 20 20 21 21 21 21 21 21 21 21 21 20 20 20 20 19 19 19 19 19 18 18 18 17 17 17
19 19 19 20 21 21 22 22 21 21 19 20 20 20 20 20 19 19 20 20 20 20 20 20 21 21 21 21 20 20 20 20 19 19 19 19 19 18 18 18 17 17 17 17
17 18 19 20 21 21 21 21 21 21 20 20 20 20 20 19 19 19 19 19 19 20 20 20 20 21 20 20 20 20 20 20 19 19 19 19 18 18 18 18 17 17 17 17
16 17 18 19 20 21 21 20 20 20 20 20 20 20 19 18 18 19 19 20 20 20 20 20 20 20 20 20 20 20 20 19 19 19 19 19 18 18 18 17 17 17 17 16
15 15 15 16 20 20 20 20 20 20 20 19 19 19 18 18 19 19 20 20 20 20 20 20 20 20 20 20 20 20 19 19 19 19 19 18 18 17 17 17 17 17 16 16
14 15 15 15 17 19 20 20 20 20 19 19 19 19 18 19 19 19 20 20 20 21 21 20 20 20 20 20 20 19 19 18 18 18 18 18 18 17 17 17 17 16 16 16
14 14 15 15 18 18 19 19 20 20 19 19 18 18 18 18 18 18 20 20 20 20 20 20 19 19 19 19 19 19 18 18 18 18 18 18 17 17 17 17 17 16 16 16
15 14 15 15 17 17 18 18 20 20 19 19 18 18 18 18 19 20 20 19 19 19 19 19 19 19 19 19 19 18 18 18 18 18 18 17 17 17 17 17 16 16 16 16
15 15 14 14 17 17 17 17 18 18 18 18 18 19 18 19 19 19 19 19 19 19 19 19 19 19 19 18 18 18 18 18 18 18 17 17 17 17 16 16 16 16 16 15
13 14 13 14 15 15 16 16 17 18 18 18 19 19 19 18 19 19 19 19 18 19 19 18 18 18 18 18 18 18 18 18 17 17 17 17 17 17 16 16 16 16 15 15
13 12 12 13 14 15 16 17 17 18 18 18 19 19 19 19 18 18 18 18 18 18 18 18 18 18 18 18 18 17 17 17 17 17 17 16 16 16 16 16 15 15 15 15
13 13 13 13 14 15 16 17 17 18 18 18 19 19 19 19 18 18 18 18 18 18 18 18 18 18 18 18 17 17 17 17 16 16 16 16 16 16 16 15 15 15 15 15
12 13 13 13 14 14 15 16 17 17 17 18 18 18 18 18 18 18 17 17 17 17 17 17 17 17 17 17 17 17 16 16 16 16 16 16 16 15 15 15 15 15 15 15
Wind_Speed
3 5 5 9 8 6 6 4 4 4 3 5 5 5 8 11 11 10 10 10 10 9 7 7 7 6 6 5 5 4 4 3 3 2 2 2 1 1 0 1 2 3 3 3
4 4 8 6 6 5 5 3 3 2 2 4 3 4 6 11 13 12 12 12 11 8 6 7 7 6 6 6 5 5 4 4 4 2 2 2 2 1 1 0 0 2 3 3
8 6 5 5 4 5 4 6 6 4 2 3 3 3 4 6 7 8 9 9 10 12 12 10 9 8 7 7 7 7 6 5 4 4 2 2 2 2 1 1 0 0 2 3
6 5 5 5 5 6 5 6 7 6 5 1 2 3 6 6 7 10 11 10 11 11 10 10 10 10 9 9 8 7 6 5 4 4 4 4 3 2 1 1 1 0 1 2
7 5 6 6 7 8 6 2 4 4 5 2 1 2 7 2 6 11 13 14 13 12 12 12 12 11 10 9 8 7 6 5 4 4 5 4 3 2 1 1 1 1 1 0
6 4 6 7 4 6 5 7 8 7 5 0 3 4 7 5 8 8 11 13 13 13 12 11 10 9 8 7 7 7 6 5 5 5 4 4 4 3 3 2 1 0 1 1
3 3 3 4 3 2 6 7 4 4 3 5 2 3 9 8 7 9 10 12 12 12 13 12 11 11 10 9 8 7 7 6 5 5 5 5 5 5 4 3 2 2 1 0
4 5 4 4 7 7 6 9 8 6 6 4 1 5 8 6 4 5 6 8 9 11 12 12 12 12 11 11 9 8 8 7 6 6 5 4 4 4 3 3 3 3 2 2
7 6 4 3 4 10 7 5 7 7 3 1 5 6 8 3 2 1 4 7 9 10 11 11 11 11 11 10 10 10 9 7 6 6 5 4 4 4 4 3 3 2 2 2
9 5 4 2 5 4 6 9 7 7 6 3 5 5 5 6 5 3 4 6 8 7 9 10 9 10 9 9 8 8 8 8 6 6 6 5 4 4 4 3 3 3 2 1
5 5 2 2 4 6 5 5 6 6 6 7 4 7 6 8 7 5 5 5 7 7 8 8 8 8 8 7 7 7 7 6 6 6 5 5 4 4 4 4 3 3 2 2
4 5 1 4 4 3 5 7 8 6 5 5 5 7 4 5 5 4 5 4 5 6 5 6 7 7 7 7 6 7 6 6 6 6 5 5 4 4 4 3 3 3 3 2
5 6 3 4 5 3 3 3 5 7 6 6 5 7 3 1 1 2 4 4 5 6 6 6 6 6 7 7 7 6 6 6 5 5 5 5 4 4 4 3 3 3 3 2
5 4 6 9 8 4 2 2 4 6 5 6 7 7 5 3 2 3 3 4 5 6 6 6 6 6 6 6 6 6 5 5 5 5 6 6 5 5 4 3 3 3 3 3
5 3 3 3 3 4 3 4 5 5 8 8 8 8 8 7 6 5 4 5 6 6 6 6 6 5 5 5 5 6 6 6 6 6 6 6 5 5 4 3 3 3 2 3
4 4 2 1 1 3 1 2 5 4 4 4 3 6 6 4 3 4 5 7 7 6 6 6 6 6 5 5 5 5 5 6 6 6 6 5 5 5 4 4 3 3 2 2
2 5 3 2 2 2 2 4 5 4 3 6 7 7 4 2 5 7 7 8 8 7 7 7 6 6 6 6 6 6 5 5 5 5 4 4 4 4 4 4 3 3 3 3
6 5 4 2 2 4 7 3 4 5 2 4 4 5 6 6 4 3 4 7 7 7 6 6 5 5 4 5 5 5 5 5 5 5 4 4 4 4 4 3 3 3 3 3
5 7 5 4 3 3 4 1 2 4 3 3 4 4 4 4 3 1 2 4 6 6 5 5 5 5 5 5 6 6 5 5 5 4 4 4 5 5 4 4 4 3 3 3
5 4 6 4 5 6 6 4 2 3 3 2 4 5 6 6 3 4 3 4 4 4 4 4 4 5 6 5 6 6 5 4 4 5 5 4 4 5 5 4 3 3 3 3
3 4 4 4 4 5 4 6 1 4 6 2 3 6 7 6 5 4 5 4 4 5 5 5 6 5 4 5 7 6 5 4 4 4 4 4 4 4 4 4 3 2 2 2
3 3 3 4 3 6 3 2 3 5 3 1 2 3 5 4 4 5 5 5 5 5 5 5 5 4 3 5 6 5 4 4 3 3 3 3 2 3 3 3 3 3 3 3
2 4 4 5 5 4 2 3 4 2 1 1 1 2 4 4 4 4 4 5 4 4 4 4 5 4 3 3 5 5 4 3 3 3 3 2 2 2 2 3 3 3 3 3
1 1 2 0 3 4 4 3 3 3 2 2 1 3 5 5 5 4 4 4 4 3 4 4 5 4 3 3 3 4 3 4 4 4 3 2 2 2 2 2 3 3 3 3
2 1 2 1 4 4 4 3 3 4 4 3 2 3 4 6 5 4 3 3 4 3 3 4 4 4 4 3 2 2 3 4 4 4 3 3 3 3 2 2 3 4 4 5
3 4 4 5 5 3 4 4 3 3 3 2 3 4 3 4 4 4 3 2 3 3 3 3 3 3 2 3 2 2 3 4 5 4 3 3 3 3 3 2 2 3 4 5
Wind_Direction
103 103 182 201 192 177 161 172 211 232 199 162 201 214 192 183 190 197 199 201 204 207 199 183 181 176 169 167 166 165 162 163 137 119 122 120 133 116 104 190 199 187 177 167
66 226 220 187 169 147 157 187 216 252 178 154 190 235 209 194 201 202 201 203 204 200 188 185 182 178 176 173 174 171 177 169 162 161 152 154 148 150 165 190 217 192 172 168
187 222 181 163 174 176 197 193 196 183 81 66 89 318 228 221 211 209 207 204 202 198 195 192 187 186 180 183 184 192 191 178 177 163 129 101 75 60 60 47 311 235 173 174
215 229 171 180 201 172 244 218 181 157 128 239 148 256 268 226 221 216 210 202 204 201 194 191 191 190 192 195 187 189 186 183 184 168 157 149 145 157 194 197 213 56 134 167
223 191 172 201 214 177 214 158 138 134 128 76 37 185 283 230 230 231 218 207 204 197 193 191 194 195 196 191 185 189 182 185 188 181 170 159 155 165 153 117 106 61 38 95
227 213 189 198 194 167 138 77 58 52 74 255 228 179 272 228 221 229 220 210 201 194 193 192 190 187 190 185 184 182 180 192 189 185 178 172 172 162 145 141 142 83 34 29
292 271 229 164 113 88 109 101 52 14 12 250 232 198 250 248 226 223 218 208 198 192 190 187 184 184 188 187 187 182 182 193 187 185 187 184 181 170 168 172 177 164 144 140
187 267 232 187 174 175 171 145 159 184 211 259 265 232 255 264 249 225 209 195 185 187 189 188 188 188 191 190 187 184 186 193 185 183 186 183 175 171 178 179 174 176 190 206
178 236 278 227 174 143 143 167 161 134 136 157 269 280 299 288 308 229 177 175 187 190 186 185 185 187 188 188 189 186 185 188 186 184 179 175 172 173 177 172 167 172 184 187
160 206 273 252 88 49 145 143 108 124 146 212 274 271 256 270 254 234 194 187 193 183 180 180 182 185 185 186 185 180 182 187 185 178 181 181 176 178 170 158 163 171 178 165
139 161 306 49 165 178 117 108 112 118 148 157 220 262 232 226 224 209 205 187 176 173 175 173 177 180 176 175 173 173 176 177 180 178 173 168 169 169 160 164 178 179 170 162
140 130 217 262 267 200 152 158 147 151 191 169 174 255 278 222 221 191 180 171 161 159 154 157 162 159 160 163 165 170 171 176 183 178 166 166 163 159 163 173 179 172 173 176
131 116 97 345 340 12 90 124 137 126 123 150 168 255 320 33 190 190 163 155 146 144 140 135 139 151 159 162 164 166 171 171 167 161 159 163 168 170 177 181 175 171 174 176
118 115 163 192 212 196 168 157 151 129 145 181 210 234 281 277 224 208 170 155 148 147 148 146 152 155 161 166 162 161 162 155 155 156 162 173 185 184 183 180 172 176 179 180
97 131 175 211 207 171 176 182 174 174 177 179 214 218 244 237 219 201 167 147 140 146 149 158 163 163 162 157 158 160 160 157 155 158 168 182 181 175 170 169 171 171 176 190
69 127 112 336 228 158 171 205 185 195 183 193 195 245 248 227 170 165 166 156 159 167 167 168 167 163 168 168 165 159 166 165 156 163 176 177 171 171 174 177 173 170 183 185
86 122 115 227 285 69 253 226 193 183 192 176 203 229 205 191 191 194 186 173 176 177 176 175 176 174 175 174 165 166 170 158 155 165 170 172 174 177 182 183 176 186 194 193
144 121 127 138 101 203 239 249 176 168 215 209 211 211 192 195 195 188 184 180 179 177 177 175 172 165 163 155 151 149 145 147 159 168 174 174 175 183 179 178 191 202 198 197
157 141 128 132 162 250 285 261 167 179 256 227 199 194 166 134 85 3 207 182 181 179 173 170 171 160 147 141 138 133 141 151 160 175 181 183 184 184 184 193 199 202 200 213
63 102 121 130 151 211 242 289 282 135 270 243 179 183 166 135 156 237 207 168 151 140 140 145 145 134 139 143 136 136 148 154 174 187 186 182 176 176 188 197 204 199 196 212
52 60 110 145 182 244 269 308 46 163 234 245 195 191 172 180 200 187 143 143 143 140 134 132 130 134 146 145 140 147 159 187 198 177 164 165 169 176 185 185 195 189 202 219
160 140 154 143 168 238 307 21 186 232 286 254 195 180 163 164 138 127 131 132 131 126 122 128 129 132 132 142 149 156 185 202 170 149 154 164 169 179 181 177 192 188 191 214
186 183 175 184 208 253 277 252 279 267 276 272 194 162 143 139 135 131 134 133 132 135 138 136 137 135 133 154 160 172 196 162 144 145 166 176 175 188 184 185 194 194 195 212
303 97 118 284 290 298 319 323 340 344 322 313 182 146 139 136 131 131 139 136 130 133 145 140 138 152 176 189 179 184 173 156 157 171 186 184 190 213 213 201 203 209 214 215
236 140 113 273 285 330 343 341 340 350 2 19 67 100 127 132 130 134 133 138 143 148 149 146 158 184 198 195 195 188 169 161 172 185 194 205 215 218 223 222 223 224 225 216
219 187 173 216 232 209 262 296 325 356 2 34 69 59 74 120 129 125 133 150 157 154 146 145 161 186 198 190 201 199 177 173 177 194 204 210 215 218 218 216 257 258 245 250
Height
1479 1486 1493 1490 1489 1490 1495 1501 1505 1501 1494 1498 1502 1503 1502 1502 1505 1506 1507 1508 1510 1512 1515 1517 1519 1521 1523 1525 1526 1528 1529 1531 1532 1533 1533 1534 1534 1535 1536 1537 1538 1538 1539 1539
1484 1488 1482 1481 1485 1488 1494 1501 1502 1498 1493 1497 1502 1503 1500 1500 1500 1501 1503 1506 1508 1511 1513 1516 1518 1520 1522 1524 1526 1528 1529 1530 1531 1532 1533 1534 1535 1535 1537 1537 1538 1539 1539 1539
1484 1481 1477 1481 1485 1490 1493 1498 1499 1500 1497 1498 1503 1507 1502 1498 1499 1501 1502 1503 1505 1507 1510 1513 1516 1518 1520 1522 1524 1527 1528 1529 1531 1532 1533 1534 1534 1535 1536 1537 1537 1538 1538 1539
1479 1475 1476 1480 1484 1487 1496 1487 1489 1495 1505 1513 1508 1522 1504 1499 1498 1497 1498 1500 1502 1505 1507 1510 1513 1515 1518 1520 1523 1525 1527 1529 1530 1531 1532 1533 1533 1534 1535 1536 1537 1538 1538 1538
1477 1473 1476 1481 1479 1481 1485 1482 1487 1494 1505 1514 1513 1520 1511 1500 1500 1494 1492 1494 1497 1501 1504 1507 1510 1512 1515 1519 1521 1523 1525 1527 1529 1530 1531 1532 1533 1534 1535 1535 1536 1536 1537 1538
1470 1468 1469 1471 1471 1474 1479 1487 1495 1504 1512 1525 1516 1521 1514 1502 1493 1487 1486 1489 1492 1496 1500 1504 1507 1510 1514 1516 1519 1521 1523 1525 1527 1529 1530 1531 1532 1532 1533 1534 1535 1535 1536 1537
1474 1469 1466 1467 1474 1476 1481 1500 1522 1525 1533 1529 1515 1517 1509 1487 1482 1481 1482 1484 1487 1492 1496 1500 1503 1507 1510 1513 1516 1519 1521 1523 1525 1527 1528 1529 1530 1531 1532 1532 1533 1534 1535 1535
1485 1486 1468 1465 1470 1479 1484 1494 1518 1531 1534 1528 1516 1516 1496 1480 1478 1478 1478 1481 1484 1488 1492 1496 1500 1504 1507 1510 1513 1516 1519 1521 1523 1525 1526 1528 1529 1530 1531 1531 1532 1533 1533 1534
1485 1483 1465 1462 1463 1470 1484 1492 1493 1513 1522 1527 1521 1509 1491 1478 1477 1476 1477 1479 1481 1484 1488 1492 1496 1500 1504 1507 1510 1513 1516 1518 1520 1522 1524 1526 1527 1528 1529 1530 1531 1531 1532 1533
1470 1479 1468 1463 1463 1468 1473 1484 1501 1514 1529 1531 1519 1512 1503 1484 1479 1476 1476 1477 1478 1482 1485 1489 1494 1497 1501 1504 1508 1511 1513 1516 1518 1520 1522 1524 1525 1527 1528 1529 1529 1530 1531 1531
1465 1477 1474 1469 1471 1475 1479 1486 1496 1509 1511 1525 1529 1514 1482 1479 1475 1475 1475 1475 1477 1480 1483 1487 1491 1495 1499 1502 1505 1508 1510 1513 1516 1518 1520 1522 1523 1525 1526 1527 1527 1528 1529 1529
1465 1477 1485 1476 1466 1464 1468 1478 1489 1502 1511 1514 1518 1507 1472 1473 1472 1472 1474 1475 1477 1479 1482 1486 1490 1494 1497 1500 1503 1505 1508 1510 1513 1516 1518 1520 1521 1523 1523 1524 1525 1527 1527 1528
1464 1478 1491 1487 1481 1471 1472 1476 1481 1490 1504 1514 1515 1499 1472 1471 1472 1472 1473 1475 1477 1479 1482 1485 1489 1492 1495 1497 1500 1502 1505 1508 1511 1514 1516 1517 1519 1520 1521 1522 1523 1524 1525 1526
1458 1475 1484 1491 1485 1476 1475 1476 1480 1486 1500 1507 1501 1489 1476 1473 1472 1472 1473 1474 1477 1479 1481 1484 1487 1490 1493 1495 1498 1500 1503 1505 1509 1511 1513 1515 1516 1517 1518 1520 1521 1522 1523 1524
1459 1474 1474 1473 1469 1470 1471 1472 1475 1479 1483 1490 1486 1483 1474 1470 1469 1470 1472 1474 1476 1478 1481 1483 1486 1489 1491 1494 1496 1498 1501 1504 1507 1509 1510 1511 1513 1515 1516 1517 1518 1519 1520 1521
1462 1472 1473 1474 1469 1468 1472 1470 1472 1473 1475 1478 1477 1478 1467 1467 1468 1470 1471 1472 1474 1476 1479 1481 1484 1487 1489 1492 1494 1497 1499 1502 1504 1506 1507 1509 1511 1512 1513 1514 1516 1517 1518 1518
1467 1472 1479 1483 1474 1471 1479 1472 1471 1472 1471 1472 1476 1471 1466 1467 1467 1467 1468 1470 1472 1474 1477 1480 1482 1484 1487 1490 1492 1495 1498 1500 1501 1503 1505 1507 1508 1509 1511 1512 1513 1514 1515 1516
1466 1474 1483 1486 1481 1490 1476 1463 1463 1466 1466 1465 1464 1463 1463 1464 1465 1466 1466 1468 1470 1473 1475 1478 1480 1483 1486 1488 1491 1494 1496 1498 1500 1501 1503 1505 1506 1507 1508 1509 1510 1511 1512 1513
1460 1469 1482 1490 1490 1483 1470 1463 1463 1466 1467 1462 1462 1462 1462 1464 1465 1466 1466 1467 1468 1471 1474 1476 1479 1481 1484 1487 1489 1492 1494 1496 1498 1499 1500 1502 1503 1505 1505 1507 1507 1508 1509 1510
1462 1465 1477 1486 1487 1488 1473 1461 1459 1463 1468 1459 1459 1460 1461 1463 1469 1466 1464 1466 1468 1471 1473 1475 1478 1481 1484 1486 1489 1491 1492 1494 1495 1496 1498 1499 1501 1502 1503 1503 1504 1506 1506 1507
1470 1473 1478 1482 1483 1477 1464 1460 1459 1472 1467 1458 1458 1458 1459 1460 1461 1462 1463 1466 1468 1470 1472 1475 1478 1480 1483 1486 1488 1489 1491 1492 1493 1494 1496 1497 1498 1499 1500 1501 1502 1503 1503 1504
1472 1475 1479 1481 1482 1478 1460 1460 1464 1463 1457 1456 1456 1457 1457 1458 1459 1461 1463 1465 1468 1470 1472 1474 1477 1479 1482 1485 1487 1488 1490 1491 1492 1492 1494 1495 1496 1497 1498 1499 1500 1500 1499 1500
1469 1469 1471 1473 1473 1463 1460 1460 1460 1458 1457 1456 1455 1456 1457 1458 1459 1461 1463 1465 1468 1470 1472 1474 1476 1479 1481 1483 1485 1487 1488 1489 1490 1491 1492 1493 1493 1494 1495 1496 1496 1496 1497 1496
1466 1465 1468 1468 1464 1461 1459 1458 1458 1457 1456 1456 1456 1456 1457 1457 1459 1461 1463 1465 1467 1469 1472 1474 1476 1478 1480 1481 1483 1485 1487 1488 1488 1489 1490 1490 1491 1492 1492 1493 1493 1493 1493 1492
1465 1465 1467 1467 1464 1460 1459 1458 1458 1457 1456 1456 1457 1456 1457 1458 1459 1461 1463 1464 1466 1469 1471 1473 1474 1476 1478 1480 1482 1483 1485 1486 1486 1487 1487 1488 1488 1489 1490 1490 1490 1489 1490 1489
1463 1464 1465 1465 1461 1461 1460 1459 1459 1458 1457 1457 1456 1456 1458 1458 1459 1461 1462 1465 1466 1468 1469 1471 1473 1475 1476 1478 1480 1481 1483 1484 1484 1485 1485 1485 1486 1486 1486 1486 1487 1486 1487 1487